Location: Murphys Corner
(39.1062°N, 77.8244°W)
Time: 20:09:19
(UTC+00:00)

Envisat - Pass Details

Date: 09 February 2023
Orbit: 763 x 765 km, 98.2° (Epoch: 24 March)

Event Time Altitude Azimuth Distance (km) Brightness Sun altitude
Rises 10:20:07 0° 358° (N) 3,239 6.2 -21.8°
Reaches altitude 10° 10:22:50 10° 345° (NNW) 2,308 5.3 -21.3°
Enters shadow 10:23:31 13° 339° (NNW) 2,104 5.0 -21.1°
